Weather History for Kirksville, MO

Change the Weather History Date:

Thursday, July 11, 2013

  Actual Average Record
Temperature  
Mean Temperature 69 °F 75 °F  
Max Temperature 84 °F 85 °F 103 °F (1936)
Min Temperature 54 °F 65 °F 53 °F (1945)
Degree Days  
Heating Degree Days 0 0  
Month to date heating degree days 0 0  
Since 1 June heating degree days 36 16  
Since 1 July heating degree days 0 0  
Cooling Degree Days 4 10  
Month to date cooling degree days 101 104  
Year to date cooling degree days 376 358  
Since 1 June cooling degree days 308 296  
Growing Degree Days 18 (Base 50)    
Moisture  
Dew Point 57 °F    
Average Humidity 70    
Maximum Humidity 100    
Minimum Humidity 40    
Precipitation  
Precipitation 0.00 in 0.15 in 2.33 in (1991)
Month to date precipitation T 1.48  
Year to date precipitation 27.91 20.41  
Sea Level Pressure  
Sea Level Pressure 30.09 in    
Wind  
Wind Speed 4 mph (ENE)    
Max Wind Speed 13 mph    
Max Gust Speed 17 mph    
Visibility 8 miles    
Events      
T = Trace of Precipitation, MM = Missing Value Source: NWS Daily Summary

Daily Weather History Graph

Daily Weather History Graph

Search for Another Location

Airport:

Trip Planner

Search our weather history database for the weather conditions in past years. The results will help you decide how hot, cold, wet, or windy it might be!

Date:

Astronomy

Jul. 11, 2013 Rise Set
Actual Time 5:50 AM CDT 8:40 PM CDT
Civil Twilight 5:18 AM CDT 9:12 PM CDT
Nautical Twilight 4:38 AM CDT 9:52 PM CDT
Astronomical Twilight 3:51 AM CDT 10:38 PM CDT
Moon 9:09 AM CDT (7/11) 10:20 PM CDT (7/11)
Length of Visible Light 15h 53m
Length of Day
14h 49m
Waxing Crescent, 11% of the Moon is Illuminated
Jul 11
Waxing Crescent
Jul 15
First Quarter
Jul 22
Full
Jul 29
Last Quarter
Aug 6
New

Hourly Weather History & Observations

Time (CDT) Temp. Heat Index Dew Point Humidity Pressure Visibility Wind Dir Wind Speed Gust Speed Precip Events Conditions
2:55 AM 57.0 °F - 55.9 °F 96% 30.08 in 8.0 mi Calm Calm - N/A   Clear
3:55 AM 57.0 °F - 55.9 °F 96% 30.08 in 5.0 mi Calm Calm - N/A   Clear
4:55 AM 55.0 °F - 54.0 °F 96% 30.08 in 6.0 mi Calm Calm - N/A   Clear
5:27 AM 53.6 °F - 53.6 °F 100% 30.09 in 2.5 mi Calm Calm - N/A   Clear
5:35 AM 55.4 °F - 53.6 °F 94% 30.09 in 3.0 mi Calm Calm - N/A   Clear
5:44 AM 55.4 °F - 55.4 °F 100% 30.09 in 2.5 mi Calm Calm - N/A   Clear
5:55 AM 55.9 °F - 55.0 °F 97% 30.09 in 3.0 mi NNE 4.6 mph - N/A   Clear
6:55 AM 61.0 °F - 59.0 °F 93% 30.11 in 6.0 mi Calm Calm - N/A   Clear
7:55 AM 68.0 °F - 62.1 °F 81% 30.12 in 8.0 mi NE 3.5 mph - N/A   Clear
8:55 AM 73.0 °F - 62.1 °F 68% 30.12 in 9.0 mi NE 5.8 mph - N/A   Clear
9:55 AM 75.9 °F - 61.0 °F 60% 30.12 in 10.0 mi East 4.6 mph - N/A   Clear
10:55 AM 78.1 °F - 57.9 °F 50% 30.12 in 10.0 mi East 6.9 mph - N/A   Clear
11:55 AM 80.1 °F 80.6 °F 57.9 °F 47% 30.12 in 10.0 mi East 8.1 mph - N/A   Clear
12:55 PM 81.0 °F 81.1 °F 57.9 °F 45% 30.12 in 10.0 mi NE 5.8 mph - N/A   Clear
1:55 PM 82.0 °F 81.7 °F 57.0 °F 42% 30.11 in 10.0 mi ENE 4.6 mph - N/A   Clear
2:55 PM 84.0 °F 83.5 °F 57.9 °F 41% 30.10 in 10.0 mi Calm Calm - N/A   Clear
3:55 PM 82.9 °F 82.1 °F 55.9 °F 39% 30.08 in 10.0 mi ENE 9.2 mph - N/A   Clear
4:55 PM 82.0 °F 82.0 °F 57.9 °F 44% 30.08 in 10.0 mi East 9.2 mph - N/A   Clear
5:55 PM 82.0 °F 81.6 °F 55.9 °F 41% 30.07 in 10.0 mi East 8.1 mph - N/A   Clear
6:55 PM 80.1 °F 80.4 °F 57.0 °F 45% 30.06 in 10.0 mi East 6.9 mph - N/A   Clear
7:55 PM 77.0 °F - 60.1 °F 56% 30.05 in 10.0 mi East 4.6 mph - N/A   Clear
8:55 PM 71.1 °F - 59.0 °F 66% 30.04 in 10.0 mi East 4.6 mph - N/A   Clear
9:55 PM 63.0 °F - 59.0 °F 87% 30.06 in 10.0 mi Calm Calm - N/A   Clear
10:55 PM 66.9 °F - 57.0 °F 70% 30.06 in 10.0 mi East 4.6 mph - N/A   Clear
11:55 PM 61.0 °F - 55.9 °F 83% 30.08 in 10.0 mi ESE 3.5 mph - N/A   Clear